Location: Dos Palmas
(32.4468°N, 116.8732°W)
Time: 00:38:32
(UTC+00:00)

ATLAS 5 CENTAUR R/B - Pass Details

Date: 20 June 2021
Orbit: 255 x 12632 km, 20.1° (Epoch: 31 July)

Event Time Altitude Azimuth Distance (km) Brightness Sun altitude
Exits shadow 08:57:58 47° 173° (S) 2,976 4.0 -31.7°
Maximum altitude 08:58:08 47° 171° (S) 3,011 4.0 -31.7°
Drops below altitude 10° 09:34:52 10° 109° (ESE) 12,413 7.7 -28.7°
Sets 09:57:34 0° 107° (ESE) 16,112 8.4 -26.3°
